Change the Weather History Date:

Sunday, November 18, 2012

  Actual Average (KGAG) Record (KGAG)
Temperature  
Mean Temperature 59 °F -  
Max Temperature 68 °F 59 °F 82 °F (1999)
Min Temperature 50 °F 33 °F 12 °F (1951)
Degree Days  
Heating Degree Days 6    
Growing Degree Days 9 (Base 50)    
Moisture  
Dew Point 35 °F    
Average Humidity 44    
Maximum Humidity 72    
Minimum Humidity 30    
Precipitation  
Precipitation 0.00 in - - ()
Sea Level Pressure  
Sea Level Pressure 30.08 in    
Wind  
Wind Speed 21 mph (South)    
Max Wind Speed 25 mph    
Max Gust Speed 33 mph    
Visibility 10 miles    
Events      
Averages and records for this station are not official NWS values.
T = Trace of Precipitation, MM = Missing Value Source: NWS Daily Summary

Daily Weather History Graph

Daily Weather History Graph

Search for Another Location

Airport or City:

Trip Planner

Search our weather history database for the weather conditions in past years. The results will help you decide how hot, cold, wet, or windy it might be!

Date:

Astronomy

Nov. 18, 2012 Rise Set
Actual Time 7:19 AM CST 5:27 PM CST
Civil Twilight 6:51 AM CST 5:55 PM CST
Nautical Twilight 6:20 AM CST 6:26 PM CST
Astronomical Twilight 5:49 AM CST 6:57 PM CST
Moon 11:48 AM CST (11/18) 10:46 PM CST (11/18)
Length of Visible Light 11h 03m
Length of Day
10h 08m
Waxing Crescent, 30% of the Moon is Illuminated
Nov 18
Waxing Crescent
Nov 20
First Quarter
Nov 28
Full
Dec 6
Last Quarter
Dec 13
New

Hourly Weather History & Observations

Time (CST) Temp. Dew Point Humidity Pressure Visibility Wind Dir Wind Speed Gust Speed Precip Events Conditions
12:15 AM 53.6 °F 26.6 °F 35% 30.16 in 10.0 mi South 24.2 mph 29.9 mph N/A   Clear
12:35 AM 53.6 °F 26.6 °F 35% 30.15 in 10.0 mi South 21.9 mph 31.1 mph N/A   Clear
12:55 AM 51.8 °F 26.6 °F 38% 30.15 in 10.0 mi South 24.2 mph 28.8 mph N/A   Clear
1:15 AM 51.8 °F 26.6 °F 38% 30.14 in 10.0 mi South 20.7 mph 28.8 mph N/A   Clear
1:35 AM 51.8 °F 26.6 °F 38% 30.13 in 10.0 mi South 19.6 mph 28.8 mph N/A   Clear
1:55 AM 51.8 °F 26.6 °F 38% 30.13 in 10.0 mi South 19.6 mph 26.5 mph N/A   Clear
2:15 AM 51.8 °F 26.6 °F 38% 30.13 in 10.0 mi South 19.6 mph 25.3 mph N/A   Clear
2:35 AM 51.8 °F 26.6 °F 38% 30.13 in 10.0 mi South 20.7 mph 25.3 mph N/A   Clear
2:55 AM 51.8 °F 26.6 °F 38% 30.13 in 10.0 mi South 16.1 mph 25.3 mph N/A   Clear
3:15 AM 51.8 °F 26.6 °F 38% 30.12 in 10.0 mi South 19.6 mph 25.3 mph N/A   Clear
3:35 AM 51.8 °F 26.6 °F 38% 30.12 in 10.0 mi South 19.6 mph 26.5 mph N/A   Clear
3:55 AM 50.0 °F 26.6 °F 40% 30.10 in 10.0 mi South 18.4 mph 25.3 mph N/A   Clear
4:15 AM 50.0 °F 26.6 °F 40% 30.11 in 10.0 mi South 16.1 mph 25.3 mph N/A   Clear
4:35 AM 50.0 °F 26.6 °F 40% 30.11 in 10.0 mi South 19.6 mph 25.3 mph N/A   Clear
4:55 AM 50.0 °F 26.6 °F 40% 30.11 in 10.0 mi South 20.7 mph 25.3 mph N/A   Clear
5:15 AM 50.0 °F 28.4 °F 43% 30.11 in 10.0 mi South 20.7 mph 27.6 mph N/A   Clear
5:35 AM 50.0 °F 28.4 °F 43% 30.10 in 10.0 mi South 20.7 mph 28.8 mph N/A   Clear
5:55 AM 50.0 °F 28.4 °F 43% 30.10 in 10.0 mi South 20.7 mph 27.6 mph N/A   Clear
6:15 AM 50.0 °F 28.4 °F 43% 30.10 in 10.0 mi South 18.4 mph 24.2 mph N/A   Clear
6:35 AM 50.0 °F 28.4 °F 43% 30.11 in 10.0 mi South 18.4 mph 26.5 mph N/A   Clear
6:55 AM 50.0 °F 30.2 °F 47% 30.12 in 10.0 mi South 19.6 mph - N/A   Clear
7:15 AM 50.0 °F 30.2 °F 47% 30.12 in 10.0 mi South 18.4 mph 25.3 mph N/A   Clear
7:35 AM 50.0 °F 32.0 °F 50% 30.11 in 10.0 mi South 16.1 mph 21.9 mph N/A   Clear
7:55 AM 50.0 °F 32.0 °F 50% 30.10 in 10.0 mi South 19.6 mph 26.5 mph N/A   Clear
8:15 AM 51.8 °F 32.0 °F 47% 30.11 in 10.0 mi South 23.0 mph 26.5 mph N/A   Clear
8:35 AM 51.8 °F 32.0 °F 47% 30.10 in 10.0 mi South 23.0 mph 31.1 mph N/A   Clear
8:55 AM 51.8 °F 32.0 °F 47% 30.10 in 10.0 mi South 21.9 mph 31.1 mph N/A   Clear
9:15 AM 53.6 °F 32.0 °F 44% 30.10 in 10.0 mi South 19.6 mph 31.1 mph N/A   Clear
9:35 AM 53.6 °F 33.8 °F 47% 30.10 in 10.0 mi South 24.2 mph 28.8 mph N/A   Clear
9:55 AM 55.4 °F 33.8 °F 44% 30.10 in 10.0 mi South 21.9 mph 31.1 mph N/A   Clear
10:15 AM 59.0 °F 33.8 °F 39% 30.10 in 10.0 mi South 25.3 mph 33.4 mph N/A   Clear
10:35 AM 60.8 °F 33.8 °F 36% 30.10 in 10.0 mi South 23.0 mph 32.2 mph N/A   Clear
10:55 AM 60.8 °F 33.8 °F 36% 30.10 in 10.0 mi South 25.3 mph 32.2 mph N/A   Clear
11:15 AM 60.8 °F 35.6 °F 39% 30.09 in 10.0 mi South 20.7 mph 28.8 mph N/A   Clear
11:35 AM 62.6 °F 35.6 °F 37% 30.08 in 10.0 mi South 24.2 mph 29.9 mph N/A   Clear
11:55 AM 60.8 °F 35.6 °F 39% 30.07 in 10.0 mi South 24.2 mph - N/A   Clear
12:15 PM 62.6 °F 35.6 °F 37% 30.07 in 10.0 mi South 20.7 mph 26.5 mph N/A   Clear
12:35 PM 62.6 °F 35.6 °F 37% 30.05 in 10.0 mi South 19.6 mph 25.3 mph N/A   Clear
12:55 PM 62.6 °F 35.6 °F 37% 30.04 in 10.0 mi South 18.4 mph 24.2 mph N/A   Clear
1:15 PM 68.0 °F 37.4 °F 33% 30.03 in 10.0 mi South 19.6 mph 25.3 mph N/A   Clear
1:35 PM 64.4 °F 35.6 °F 34% 30.03 in 10.0 mi South 20.7 mph 29.9 mph N/A   Clear
1:55 PM 68.0 °F 37.4 °F 33% 30.03 in 10.0 mi South 18.4 mph 31.1 mph N/A   Clear
2:15 PM 68.0 °F 37.4 °F 33% 30.03 in 10.0 mi South 21.9 mph 29.9 mph N/A   Clear
2:35 PM 68.0 °F 37.4 °F 33% 30.02 in 10.0 mi South 23.0 mph 31.1 mph N/A   Clear
2:55 PM 64.4 °F 37.4 °F 37% 30.02 in 10.0 mi South 19.6 mph - N/A   Clear
3:15 PM 68.0 °F 35.6 °F 30% 30.02 in 10.0 mi South 21.9 mph 26.5 mph N/A   Clear
3:35 PM 68.0 °F 35.6 °F 30% 30.02 in 10.0 mi South 23.0 mph 27.6 mph N/A   Clear
3:55 PM 64.4 °F 37.4 °F 37% 30.04 in 10.0 mi South 16.1 mph 29.9 mph N/A   Clear
4:15 PM 64.4 °F 37.4 °F 37% 30.04 in 10.0 mi South 15.0 mph 26.5 mph N/A   Clear
4:35 PM 64.4 °F 37.4 °F 37% 30.05 in 10.0 mi South 12.7 mph 24.2 mph N/A   Clear
4:55 PM 62.6 °F 37.4 °F 39% 30.04 in 10.0 mi South 15.0 mph 19.6 mph N/A   Clear
5:15 PM 62.6 °F 37.4 °F 39% 30.04 in 10.0 mi South 18.4 mph 23.0 mph N/A   Scattered Clouds
5:35 PM 62.6 °F 37.4 °F 39% 30.05 in 10.0 mi South 15.0 mph 20.7 mph N/A   Mostly Cloudy
5:55 PM 62.6 °F 37.4 °F 39% 30.04 in 10.0 mi South 17.3 mph - N/A   Overcast
6:15 PM 62.6 °F 41.0 °F 45% 30.04 in 10.0 mi South 16.1 mph 23.0 mph N/A   Overcast
6:35 PM 62.6 °F 41.0 °F 45% 30.05 in 10.0 mi South 20.7 mph 26.5 mph N/A   Overcast
6:55 PM 62.6 °F 41.0 °F 45% 30.04 in 10.0 mi South 23.0 mph 29.9 mph N/A   Mostly Cloudy
7:15 PM 62.6 °F 42.8 °F 48% 30.05 in 10.0 mi South 23.0 mph 31.1 mph N/A   Mostly Cloudy
7:35 PM 62.6 °F 42.8 °F 48% 30.04 in 10.0 mi South 21.9 mph 26.5 mph N/A   Overcast
7:55 PM 62.6 °F 44.6 °F 52% 30.05 in 10.0 mi South 21.9 mph 28.8 mph N/A   Overcast
8:15 PM 60.8 °F 44.6 °F 55% 30.05 in 10.0 mi South 20.7 mph 26.5 mph N/A   Mostly Cloudy
8:35 PM 60.8 °F 46.4 °F 59% 30.05 in 10.0 mi South 21.9 mph 28.8 mph N/A   Scattered Clouds
8:55 PM 60.8 °F 46.4 °F 59% 30.07 in 10.0 mi South 20.7 mph 25.3 mph N/A   Clear
9:15 PM 59.0 °F 46.4 °F 63% 30.07 in 10.0 mi South 18.4 mph 26.5 mph N/A   Clear
9:35 PM 59.0 °F 46.4 °F 63% 30.07 in 10.0 mi South 20.7 mph 26.5 mph N/A   Clear
9:55 PM 59.0 °F 46.4 °F 63% 30.07 in 10.0 mi South 19.6 mph 26.5 mph N/A   Clear
10:15 PM 59.0 °F 46.4 °F 63% 30.07 in 10.0 mi South 19.6 mph 25.3 mph N/A   Clear
10:35 PM 59.0 °F 46.4 °F 63% 30.07 in 10.0 mi South 17.3 mph 24.2 mph N/A   Clear
10:55 PM 57.2 °F 46.4 °F 67% 30.07 in 10.0 mi South 18.4 mph 24.2 mph N/A   Clear
11:15 PM 57.2 °F 46.4 °F 67% 30.07 in 10.0 mi South 18.4 mph 24.2 mph N/A   Clear
11:35 PM 57.2 °F 46.4 °F 67% 30.07 in 10.0 mi South 19.6 mph 26.5 mph N/A   Clear
11:55 PM 57.2 °F 48.2 °F 72% 30.07 in 10.0 mi South 18.4 mph 25.3 mph N/A   Clear